owner,sensor,date,latitude,longitude,vertical_datum,sea_water_practical_salinity,qcFlag 
TCOON,ioos:station:TCOON:043:1,2017-09-01T00:30:00Z,27.8838,-97.5332,0.0,16.0,1111122 
TCOON,ioos:station:TCOON:043:1,2017-09-01T01:30:00Z,27.8838,-97.5332,0.0,2.1,1111122 
TCOON,ioos:station:TCOON:043:1,2017-09-01T02:30:00Z,27.8838,-97.5332,0.0,0.3,1111122 
TCOON,ioos:station:TCOON:043:1,2017-09-01T03:30:00Z,27.8838,-97.5332,0.0,0.3,1111122 
TCOON,ioos:station:TCOON:043:1,2017-09-01T04:30:00Z,27.8838,-97.5332,0.0,0.2,1111122 
TCOON,ioos:station:TCOON:043:1,2017-09-01T05:30:00Z,27.8838,-97.5332,0.0,0.2,1111122 
TCOON,ioos:station:TCOON:043:1,2017-09-01T06:30:00Z,27.8838,-97.5332,0.0,0.2,1111122 
TCOON,ioos:station:TCOON:043:1,2017-09-01T07:30:00Z,27.8838,-97.5332,0.0,0.2,1111122 
TCOON,ioos:station:TCOON:043:1,2017-09-01T08:30:00Z,27.8838,-97.5332,0.0,0.2,1111122 
TCOON,ioos:station:TCOON:043:1,2017-09-01T09:30:00Z,27.8838,-97.5332,0.0,0.2,1111122 
TCOON,ioos:station:TCOON:043:1,2017-09-01T10:30:00Z,27.8838,-97.5332,0.0,0.2,1111122 
TCOON,ioos:station:TCOON:043:1,2017-09-01T11:30:00Z,27.8838,-97.5332,0.0,8.0,1111122 
TCOON,ioos:station:TCOON:043:1,2017-09-01T12:30:00Z,27.8838,-97.5332,0.0,13.8,1111122 
TCOON,ioos:station:TCOON:043:1,2017-09-01T13:30:00Z,27.8838,-97.5332,0.0,13.7,1111122 
TCOON,ioos:station:TCOON:043:1,2017-09-01T14:30:00Z,27.8838,-97.5332,0.0,13.8,1111122 
TCOON,ioos:station:TCOON:043:1,2017-09-01T15:30:00Z,27.8838,-97.5332,0.0,14.0,1111122 
TCOON,ioos:station:TCOON:043:1,2017-09-01T16:30:00Z,27.8838,-97.5332,0.0,14.4,1111122 
TCOON,ioos:station:TCOON:043:1,2017-09-01T17:30:00Z,27.8838,-97.5332,0.0,23.0,1111122 
TCOON,ioos:station:TCOON:043:1,2017-09-01T18:30:00Z,27.8838,-97.5332,0.0,27.3,1111122 
TCOON,ioos:station:TCOON:043:1,2017-09-01T19:30:00Z,27.8838,-97.5332,0.0,27.7,1111122 
TCOON,ioos:station:TCOON:043:1,2017-09-01T20:30:00Z,27.8838,-97.5332,0.0,28.6,1111122 
TCOON,ioos:station:TCOON:043:1,2017-09-01T21:30:00Z,27.8838,-97.5332,0.0,28.8,1111122 
TCOON,ioos:station:TCOON:043:1,2017-09-01T22:30:00Z,27.8838,-97.5332,0.0,29.0,1111122 
TCOON,ioos:station:TCOON:043:1,2017-09-02T00:30:00Z,27.8838,-97.5332,0.0,29.0,1111122 
TCOON,ioos:station:TCOON:043:1,2017-09-02T01:30:00Z,27.8838,-97.5332,0.0,29.0,1111122 
TCOON,ioos:station:TCOON:043:1,2017-09-02T02:30:00Z,27.8838,-97.5332,0.0,29.0,1111122 
TCOON,ioos:station:TCOON:043:1,2017-09-02T03:30:00Z,27.8838,-97.5332,0.0,29.0,1111122 
TCOON,ioos:station:TCOON:043:1,2017-09-02T04:30:00Z,27.8838,-97.5332,0.0,29.0,1111122 
TCOON,ioos:station:TCOON:043:1,2017-09-02T05:30:00Z,27.8838,-97.5332,0.0,26.4,1111122 
TCOON,ioos:station:TCOON:043:1,2017-09-02T06:30:00Z,27.8838,-97.5332,0.0,27.0,1111122 
TCOON,ioos:station:TCOON:043:1,2017-09-02T07:30:00Z,27.8838,-97.5332,0.0,27.0,1111122 
TCOON,ioos:station:TCOON:043:1,2017-09-02T08:30:00Z,27.8838,-97.5332,0.0,27.7,1111122 
TCOON,ioos:station:TCOON:043:1,2017-09-02T09:30:00Z,27.8838,-97.5332,0.0,28.0,1111122 
TCOON,ioos:station:TCOON:043:1,2017-09-02T10:30:00Z,27.8838,-97.5332,0.0,28.1,1111122 
TCOON,ioos:station:TCOON:043:1,2017-09-02T11:30:00Z,27.8838,-97.5332,0.0,28.2,1111122 
TCOON,ioos:station:TCOON:043:1,2017-09-02T12:30:00Z,27.8838,-97.5332,0.0,28.2,1111122 
TCOON,ioos:station:TCOON:043:1,2017-09-02T13:30:00Z,27.8838,-97.5332,0.0,28.2,1111122 
TCOON,ioos:station:TCOON:043:1,2017-09-02T14:30:00Z,27.8838,-97.5332,0.0,28.1,1111122 
TCOON,ioos:station:TCOON:043:1,2017-09-02T15:30:00Z,27.8838,-97.5332,0.0,27.6,1111122 
TCOON,ioos:station:TCOON:043:1,2017-09-02T16:30:00Z,27.8838,-97.5332,0.0,27.0,1111122 
TCOON,ioos:station:TCOON:043:1,2017-09-02T17:30:00Z,27.8838,-97.5332,0.0,29.1,1111122 
TCOON,ioos:station:TCOON:043:1,2017-09-02T18:30:00Z,27.8838,-97.5332,0.0,29.6,1111122 
TCOON,ioos:station:TCOON:043:1,2017-09-02T19:30:00Z,27.8838,-97.5332,0.0,29.6,1111122 
TCOON,ioos:station:TCOON:043:1,2017-09-02T20:30:00Z,27.8838,-97.5332,0.0,29.8,1111122 
TCOON,ioos:station:TCOON:043:1,2017-09-02T21:30:00Z,27.8838,-97.5332,0.0,30.0,1111122 
TCOON,ioos:station:TCOON:043:1,2017-09-02T22:30:00Z,27.8838,-97.5332,0.0,30.1,1111122 
TCOON,ioos:station:TCOON:043:1,2017-09-02T23:30:00Z,27.8838,-97.5332,0.0,30.1,1111122 
TCOON,ioos:station:TCOON:043:1,2017-09-03T00:30:00Z,27.8838,-97.5332,0.0,30.2,1111122 
TCOON,ioos:station:TCOON:043:1,2017-09-03T01:30:00Z,27.8838,-97.5332,0.0,30.2,1111122 
TCOON,ioos:station:TCOON:043:1,2017-09-03T02:30:00Z,27.8838,-97.5332,0.0,30.2,1111122 
TCOON,ioos:station:TCOON:043:1,2017-09-03T03:30:00Z,27.8838,-97.5332,0.0,30.1,1111122 
TCOON,ioos:station:TCOON:043:1,2017-09-03T04:30:00Z,27.8838,-97.5332,0.0,30.1,1111122 
TCOON,ioos:station:TCOON:043:1,2017-09-03T05:30:00Z,27.8838,-97.5332,0.0,30.0,1111122 
TCOON,ioos:station:TCOON:043:1,2017-09-03T06:30:00Z,27.8838,-97.5332,0.0,30.0,1111122 
TCOON,ioos:station:TCOON:043:1,2017-09-03T07:30:00Z,27.8838,-97.5332,0.0,29.9,1111122 
TCOON,ioos:station:TCOON:043:1,2017-09-03T08:30:00Z,27.8838,-97.5332,0.0,30.0,1111122 
TCOON,ioos:station:TCOON:043:1,2017-09-03T09:30:00Z,27.8838,-97.5332,0.0,30.1,1111122 
TCOON,ioos:station:TCOON:043:1,2017-09-03T10:30:00Z,27.8838,-97.5332,0.0,30.0,1111122 
TCOON,ioos:station:TCOON:043:1,2017-09-03T11:30:00Z,27.8838,-97.5332,0.0,29.6,1111122 
TCOON,ioos:station:TCOON:043:1,2017-09-03T12:30:00Z,27.8838,-97.5332,0.0,29.5,1111122 
TCOON,ioos:station:TCOON:043:1,2017-09-03T13:30:00Z,27.8838,-97.5332,0.0,29.8,1111122 
TCOON,ioos:station:TCOON:043:1,2017-09-03T14:30:00Z,27.8838,-97.5332,0.0,30.1,1111122 
TCOON,ioos:station:TCOON:043:1,2017-09-03T15:30:00Z,27.8838,-97.5332,0.0,30.0,1111122 
TCOON,ioos:station:TCOON:043:1,2017-09-03T16:30:00Z,27.8838,-97.5332,0.0,30.0,1111122 
TCOON,ioos:station:TCOON:043:1,2017-09-03T17:30:00Z,27.8838,-97.5332,0.0,30.4,1111122 
TCOON,ioos:station:TCOON:043:1,2017-09-03T18:30:00Z,27.8838,-97.5332,0.0,30.5,1111122 
TCOON,ioos:station:TCOON:043:1,2017-09-03T19:30:00Z,27.8838,-97.5332,0.0,30.6,1111122 
TCOON,ioos:station:TCOON:043:1,2017-09-03T20:30:00Z,27.8838,-97.5332,0.0,30.6,1111122 
TCOON,ioos:station:TCOON:043:1,2017-09-03T21:30:00Z,27.8838,-97.5332,0.0,30.6,1111122 
TCOON,ioos:station:TCOON:043:1,2017-09-03T22:30:00Z,27.8838,-97.5332,0.0,30.8,1111122 
TCOON,ioos:station:TCOON:043:1,2017-09-03T23:30:00Z,27.8838,-97.5332,0.0,30.8,1111122 
TCOON,ioos:station:TCOON:043:1,2017-09-04T00:30:00Z,27.8838,-97.5332,0.0,30.8,1111122 
TCOON,ioos:station:TCOON:043:1,2017-09-04T01:30:00Z,27.8838,-97.5332,0.0,30.8,1111122 
TCOON,ioos:station:TCOON:043:1,2017-09-04T02:30:00Z,27.8838,-97.5332,0.0,30.8,1111122 
TCOON,ioos:station:TCOON:043:1,2017-09-04T03:30:00Z,27.8838,-97.5332,0.0,31.6,1111122 
TCOON,ioos:station:TCOON:043:1,2017-09-04T04:30:00Z,27.8838,-97.5332,0.0,31.6,1111122 
TCOON,ioos:station:TCOON:043:1,2017-09-04T05:30:00Z,27.8838,-97.5332,0.0,31.5,1111122 
TCOON,ioos:station:TCOON:043:1,2017-09-04T06:30:00Z,27.8838,-97.5332,0.0,31.7,1111122 
TCOON,ioos:station:TCOON:043:1,2017-09-07T15:30:00Z,27.8838,-97.5332,0.0,31.9,1111122 
TCOON,ioos:station:TCOON:043:1,2017-09-07T16:30:00Z,27.8838,-97.5332,0.0,32.0,1111122 
TCOON,ioos:station:TCOON:043:1,2017-09-07T17:30:00Z,27.8838,-97.5332,0.0,32.0,1111122 
TCOON,ioos:station:TCOON:043:1,2017-09-07T18:30:00Z,27.8838,-97.5332,0.0,32.0,1111122 
TCOON,ioos:station:TCOON:043:1,2017-09-07T19:30:00Z,27.8838,-97.5332,0.0,32.2,1111122 
TCOON,ioos:station:TCOON:043:1,2017-09-07T20:30:00Z,27.8838,-97.5332,0.0,32.2,1111122 
TCOON,ioos:station:TCOON:043:1,2017-09-07T21:30:00Z,27.8838,-97.5332,0.0,32.2,1111122 
TCOON,ioos:station:TCOON:043:1,2017-09-07T22:30:00Z,27.8838,-97.5332,0.0,32.3,1111122 
TCOON,ioos:station:TCOON:043:1,2017-09-07T23:30:00Z,27.8838,-97.5332,0.0,32.3,1111122 
TCOON,ioos:station:TCOON:043:1,2017-09-08T00:30:00Z,27.8838,-97.5332,0.0,32.2,1111122 
TCOON,ioos:station:TCOON:043:1,2017-09-08T01:30:00Z,27.8838,-97.5332,0.0,32.2,1111122 
TCOON,ioos:station:TCOON:043:1,2017-09-08T02:30:00Z,27.8838,-97.5332,0.0,32.2,1111122 
TCOON,ioos:station:TCOON:043:1,2017-09-08T03:30:00Z,27.8838,-97.5332,0.0,32.2,1111122 
TCOON,ioos:station:TCOON:043:1,2017-09-08T04:30:00Z,27.8838,-97.5332,0.0,32.2,1111122 
TCOON,ioos:station:TCOON:043:1,2017-09-08T05:30:00Z,27.8838,-97.5332,0.0,32.2,1111122 
TCOON,ioos:station:TCOON:043:1,2017-09-08T06:30:00Z,27.8838,-97.5332,0.0,32.2,1111122 
TCOON,ioos:station:TCOON:043:1,2017-09-08T07:30:00Z,27.8838,-97.5332,0.0,32.2,1111122 
TCOON,ioos:station:TCOON:043:1,2017-09-08T08:30:00Z,27.8838,-97.5332,0.0,32.2,1111122 
TCOON,ioos:station:TCOON:043:1,2017-09-08T09:30:00Z,27.8838,-97.5332,0.0,32.2,1111122 
TCOON,ioos:station:TCOON:043:1,2017-09-08T10:30:00Z,27.8838,-97.5332,0.0,32.3,1111122 
TCOON,ioos:station:TCOON:043:1,2017-09-08T11:30:00Z,27.8838,-97.5332,0.0,31.0,1111122 
TCOON,ioos:station:TCOON:043:1,2017-09-08T12:30:00Z,27.8838,-97.5332,0.0,32.4,1111122 
TCOON,ioos:station:TCOON:043:1,2017-09-08T13:30:00Z,27.8838,-97.5332,0.0,32.4,1111122 
TCOON,ioos:station:TCOON:043:1,2017-09-08T14:30:00Z,27.8838,-97.5332,0.0,32.4,1111122 
TCOON,ioos:station:TCOON:043:1,2017-09-08T15:30:00Z,27.8838,-97.5332,0.0,32.4,1111122 
TCOON,ioos:station:TCOON:043:1,2017-09-08T16:30:00Z,27.8838,-97.5332,0.0,32.4,1111122 
TCOON,ioos:station:TCOON:043:1,2017-09-08T17:30:00Z,27.8838,-97.5332,0.0,32.4,1111122 
TCOON,ioos:station:TCOON:043:1,2017-09-08T18:30:00Z,27.8838,-97.5332,0.0,32.5,1111122 
TCOON,ioos:station:TCOON:043:1,2017-09-08T19:30:00Z,27.8838,-97.5332,0.0,32.6,1111122 
TCOON,ioos:station:TCOON:043:1,2017-09-08T20:30:00Z,27.8838,-97.5332,0.0,32.6,1111122 
TCOON,ioos:station:TCOON:043:1,2017-09-08T21:30:00Z,27.8838,-97.5332,0.0,32.7,1111122 
TCOON,ioos:station:TCOON:043:1,2017-09-08T22:30:00Z,27.8838,-97.5332,0.0,32.7,1111122 
TCOON,ioos:station:TCOON:043:1,2017-09-08T23:30:00Z,27.8838,-97.5332,0.0,32.7,1111122 
TCOON,ioos:station:TCOON:043:1,2017-09-09T00:30:00Z,27.8838,-97.5332,0.0,32.7,1111122 
TCOON,ioos:station:TCOON:043:1,2017-09-09T01:30:00Z,27.8838,-97.5332,0.0,32.8,1111122 
TCOON,ioos:station:TCOON:043:1,2017-09-09T02:30:00Z,27.8838,-97.5332,0.0,32.7,1111122 
TCOON,ioos:station:TCOON:043:1,2017-09-09T03:30:00Z,27.8838,-97.5332,0.0,32.8,1111122 
TCOON,ioos:station:TCOON:043:1,2017-09-09T04:30:00Z,27.8838,-97.5332,0.0,32.8,1111122 
TCOON,ioos:station:TCOON:043:1,2017-09-09T05:30:00Z,27.8838,-97.5332,0.0,32.8,1111122 
TCOON,ioos:station:TCOON:043:1,2017-09-09T06:30:00Z,27.8838,-97.5332,0.0,32.9,1111122 
TCOON,ioos:station:TCOON:043:1,2017-09-09T07:30:00Z,27.8838,-97.5332,0.0,32.9,1111122 
TCOON,ioos:station:TCOON:043:1,2017-09-09T08:30:00Z,27.8838,-97.5332,0.0,32.9,1111122 
TCOON,ioos:station:TCOON:043:1,2017-09-09T09:30:00Z,27.8838,-97.5332,0.0,32.9,1111122 
TCOON,ioos:station:TCOON:043:1,2017-09-09T10:30:00Z,27.8838,-97.5332,0.0,32.9,1111122 
TCOON,ioos:station:TCOON:043:1,2017-09-09T11:30:00Z,27.8838,-97.5332,0.0,32.9,1111122 
TCOON,ioos:station:TCOON:043:1,2017-09-09T12:30:00Z,27.8838,-97.5332,0.0,32.9,1111122 
TCOON,ioos:station:TCOON:043:1,2017-09-13T23:30:00Z,27.8838,-97.5332,0.0,33.9,1111122 
TCOON,ioos:station:TCOON:043:1,2017-09-14T00:30:00Z,27.8838,-97.5332,0.0,33.8,1111122 
TCOON,ioos:station:TCOON:043:1,2017-09-14T01:30:00Z,27.8838,-97.5332,0.0,34.4,1111122 
TCOON,ioos:station:TCOON:043:1,2017-09-14T02:30:00Z,27.8838,-97.5332,0.0,35.5,1111122 
TCOON,ioos:station:TCOON:043:1,2017-09-14T03:30:00Z,27.8838,-97.5332,0.0,35.2,1111122 
TCOON,ioos:station:TCOON:043:1,2017-09-14T04:30:00Z,27.8838,-97.5332,0.0,34.5,1111122 
TCOON,ioos:station:TCOON:043:1,2017-09-14T05:30:00Z,27.8838,-97.5332,0.0,34.0,1111122 
TCOON,ioos:station:TCOON:043:1,2017-09-14T06:30:00Z,27.8838,-97.5332,0.0,33.8,1111122 
TCOON,ioos:station:TCOON:043:1,2017-09-14T07:30:00Z,27.8838,-97.5332,0.0,33.8,1111122 
TCOON,ioos:station:TCOON:043:1,2017-09-14T08:30:00Z,27.8838,-97.5332,0.0,33.9,1111122 
TCOON,ioos:station:TCOON:043:1,2017-09-14T09:30:00Z,27.8838,-97.5332,0.0,33.8,1111122 
TCOON,ioos:station:TCOON:043:1,2017-09-14T10:30:00Z,27.8838,-97.5332,0.0,33.9,1111122 
TCOON,ioos:station:TCOON:043:1,2017-09-14T11:30:00Z,27.8838,-97.5332,0.0,34.0,1111122 
TCOON,ioos:station:TCOON:043:1,2017-09-14T12:30:00Z,27.8838,-97.5332,0.0,34.0,1111122 
TCOON,ioos:station:TCOON:043:1,2017-09-14T13:30:00Z,27.8838,-97.5332,0.0,33.9,1111122 
TCOON,ioos:station:TCOON:043:1,2017-09-14T14:30:00Z,27.8838,-97.5332,0.0,34.1,1111122 
TCOON,ioos:station:TCOON:043:1,2017-09-14T15:30:00Z,27.8838,-97.5332,0.0,34.3,1111122 
TCOON,ioos:station:TCOON:043:1,2017-09-14T16:30:00Z,27.8838,-97.5332,0.0,34.3,1111122 
TCOON,ioos:station:TCOON:043:1,2017-09-14T17:30:00Z,27.8838,-97.5332,0.0,34.2,1111122 
TCOON,ioos:station:TCOON:043:1,2017-09-14T18:30:00Z,27.8838,-97.5332,0.0,34.3,1111122 
TCOON,ioos:station:TCOON:043:1,2017-09-14T19:30:00Z,27.8838,-97.5332,0.0,34.4,1111122 
TCOON,ioos:station:TCOON:043:1,2017-09-14T21:30:00Z,27.8838,-97.5332,0.0,34.8,1111122 
TCOON,ioos:station:TCOON:043:1,2017-09-14T22:30:00Z,27.8838,-97.5332,0.0,34.8,1111122 
TCOON,ioos:station:TCOON:043:1,2017-09-14T23:30:00Z,27.8838,-97.5332,0.0,35.2,1111122 
TCOON,ioos:station:TCOON:043:1,2017-09-15T00:30:00Z,27.8838,-97.5332,0.0,35.3,1111122 
TCOON,ioos:station:TCOON:043:1,2017-09-15T01:30:00Z,27.8838,-97.5332,0.0,35.3,1111122 
TCOON,ioos:station:TCOON:043:1,2017-09-15T02:30:00Z,27.8838,-97.5332,0.0,35.5,1111122 
TCOON,ioos:station:TCOON:043:1,2017-09-15T03:30:00Z,27.8838,-97.5332,0.0,35.4,1111122 
TCOON,ioos:station:TCOON:043:1,2017-09-15T04:30:00Z,27.8838,-97.5332,0.0,36.0,1111122 
TCOON,ioos:station:TCOON:043:1,2017-09-15T05:30:00Z,27.8838,-97.5332,0.0,36.0,1111122 
TCOON,ioos:station:TCOON:043:1,2017-09-15T06:30:00Z,27.8838,-97.5332,0.0,36.0,1111122 
TCOON,ioos:station:TCOON:043:1,2017-09-15T07:30:00Z,27.8838,-97.5332,0.0,35.8,1111122 
TCOON,ioos:station:TCOON:043:1,2017-09-15T08:30:00Z,27.8838,-97.5332,0.0,35.4,1111122 
TCOON,ioos:station:TCOON:043:1,2017-09-15T09:30:00Z,27.8838,-97.5332,0.0,35.4,1111122 
TCOON,ioos:station:TCOON:043:1,2017-09-15T10:30:00Z,27.8838,-97.5332,0.0,35.4,1111122 
TCOON,ioos:station:TCOON:043:1,2017-09-15T11:30:00Z,27.8838,-97.5332,0.0,35.4,1111122 
TCOON,ioos:station:TCOON:043:1,2017-09-15T12:30:00Z,27.8838,-97.5332,0.0,35.8,1111122 
TCOON,ioos:station:TCOON:043:1,2017-09-15T13:30:00Z,27.8838,-97.5332,0.0,35.8,1111122 
TCOON,ioos:station:TCOON:043:1,2017-09-15T14:30:00Z,27.8838,-97.5332,0.0,35.7,1111122 
TCOON,ioos:station:TCOON:043:1,2017-09-15T15:30:00Z,27.8838,-97.5332,0.0,35.5,1111122 
TCOON,ioos:station:TCOON:043:1,2017-09-15T16:30:00Z,27.8838,-97.5332,0.0,35.2,1111122 
TCOON,ioos:station:TCOON:043:1,2017-09-15T17:30:00Z,27.8838,-97.5332,0.0,34.9,1111122 
TCOON,ioos:station:TCOON:043:1,2017-09-15T18:30:00Z,27.8838,-97.5332,0.0,34.7,1111122 
TCOON,ioos:station:TCOON:043:1,2017-09-15T19:30:00Z,27.8838,-97.5332,0.0,34.3,1111122 
TCOON,ioos:station:TCOON:043:1,2017-09-15T20:30:00Z,27.8838,-97.5332,0.0,34.1,1111122 
TCOON,ioos:station:TCOON:043:1,2017-09-15T21:30:00Z,27.8838,-97.5332,0.0,34.0,1111122 
TCOON,ioos:station:TCOON:043:1,2017-09-15T22:30:00Z,27.8838,-97.5332,0.0,34.0,1111122 
TCOON,ioos:station:TCOON:043:1,2017-09-15T23:30:00Z,27.8838,-97.5332,0.0,34.2,1111122 
TCOON,ioos:station:TCOON:043:1,2017-09-16T00:30:00Z,27.8838,-97.5332,0.0,34.3,1111122 
TCOON,ioos:station:TCOON:043:1,2017-09-16T01:30:00Z,27.8838,-97.5332,0.0,34.2,1111122 
TCOON,ioos:station:TCOON:043:1,2017-09-16T02:30:00Z,27.8838,-97.5332,0.0,34.2,1111122 
TCOON,ioos:station:TCOON:043:1,2017-09-16T03:30:00Z,27.8838,-97.5332,0.0,34.2,1111122 
TCOON,ioos:station:TCOON:043:1,2017-09-16T04:30:00Z,27.8838,-97.5332,0.0,35.4,1111122 
TCOON,ioos:station:TCOON:043:1,2017-09-16T05:30:00Z,27.8838,-97.5332,0.0,35.1,1111122 
TCOON,ioos:station:TCOON:043:1,2017-09-16T06:30:00Z,27.8838,-97.5332,0.0,34.9,1111122 
TCOON,ioos:station:TCOON:043:1,2017-09-16T07:30:00Z,27.8838,-97.5332,0.0,34.7,1111122 
TCOON,ioos:station:TCOON:043:1,2017-09-16T08:30:00Z,27.8838,-97.5332,0.0,34.6,1111122 
TCOON,ioos:station:TCOON:043:1,2017-09-16T09:30:00Z,27.8838,-97.5332,0.0,34.4,1111122 
TCOON,ioos:station:TCOON:043:1,2017-09-16T10:30:00Z,27.8838,-97.5332,0.0,34.5,1111122 
TCOON,ioos:station:TCOON:043:1,2017-09-16T11:30:00Z,27.8838,-97.5332,0.0,34.5,1111122 
TCOON,ioos:station:TCOON:043:1,2017-09-16T12:30:00Z,27.8838,-97.5332,0.0,34.5,1111122 
TCOON,ioos:station:TCOON:043:1,2017-09-16T13:30:00Z,27.8838,-97.5332,0.0,34.6,1111122 
TCOON,ioos:station:TCOON:043:1,2017-09-16T14:30:00Z,27.8838,-97.5332,0.0,34.8,1111122 
TCOON,ioos:station:TCOON:043:1,2017-09-16T15:30:00Z,27.8838,-97.5332,0.0,34.2,1111122 
TCOON,ioos:station:TCOON:043:1,2017-09-16T16:30:00Z,27.8838,-97.5332,0.0,34.2,1111122 
TCOON,ioos:station:TCOON:043:1,2017-09-16T17:30:00Z,27.8838,-97.5332,0.0,34.1,1111122 
TCOON,ioos:station:TCOON:043:1,2017-09-16T18:30:00Z,27.8838,-97.5332,0.0,34.0,1111122 
TCOON,ioos:station:TCOON:043:1,2017-09-16T19:30:00Z,27.8838,-97.5332,0.0,33.8,1111122 
TCOON,ioos:station:TCOON:043:1,2017-09-16T20:30:00Z,27.8838,-97.5332,0.0,33.7,1111122 
TCOON,ioos:station:TCOON:043:1,2017-09-16T21:30:00Z,27.8838,-97.5332,0.0,33.7,1111122 
TCOON,ioos:station:TCOON:043:1,2017-09-16T22:30:00Z,27.8838,-97.5332,0.0,33.5,1111122 
TCOON,ioos:station:TCOON:043:1,2017-09-16T23:30:00Z,27.8838,-97.5332,0.0,33.6,1111122 
TCOON,ioos:station:TCOON:043:1,2017-09-17T00:30:00Z,27.8838,-97.5332,0.0,33.5,1111122 
TCOON,ioos:station:TCOON:043:1,2017-09-17T01:30:00Z,27.8838,-97.5332,0.0,33.4,1111122 
TCOON,ioos:station:TCOON:043:1,2017-09-17T02:30:00Z,27.8838,-97.5332,0.0,33.5,1111122 
TCOON,ioos:station:TCOON:043:1,2017-09-17T03:30:00Z,27.8838,-97.5332,0.0,33.5,1111122 
TCOON,ioos:station:TCOON:043:1,2017-09-17T04:30:00Z,27.8838,-97.5332,0.0,33.7,1111122 
TCOON,ioos:station:TCOON:043:1,2017-09-17T05:30:00Z,27.8838,-97.5332,0.0,33.8,1111122 
TCOON,ioos:station:TCOON:043:1,2017-09-17T06:30:00Z,27.8838,-97.5332,0.0,33.8,1111122 
TCOON,ioos:station:TCOON:043:1,2017-09-17T07:30:00Z,27.8838,-97.5332,0.0,33.7,1111122 
TCOON,ioos:station:TCOON:043:1,2017-09-17T08:30:00Z,27.8838,-97.5332,0.0,33.6,1111122 
TCOON,ioos:station:TCOON:043:1,2017-09-17T09:30:00Z,27.8838,-97.5332,0.0,33.5,1111122 
TCOON,ioos:station:TCOON:043:1,2017-09-17T10:30:00Z,27.8838,-97.5332,0.0,33.4,1111122 
TCOON,ioos:station:TCOON:043:1,2017-09-17T11:30:00Z,27.8838,-97.5332,0.0,33.3,1111122 
TCOON,ioos:station:TCOON:043:1,2017-09-17T12:30:00Z,27.8838,-97.5332,0.0,33.2,1111122 
TCOON,ioos:station:TCOON:043:1,2017-09-17T13:30:00Z,27.8838,-97.5332,0.0,33.2,1111122 
TCOON,ioos:station:TCOON:043:1,2017-09-17T14:30:00Z,27.8838,-97.5332,0.0,33.3,1111122 
TCOON,ioos:station:TCOON:043:1,2017-09-17T15:30:00Z,27.8838,-97.5332,0.0,33.5,1111122 
TCOON,ioos:station:TCOON:043:1,2017-09-17T16:30:00Z,27.8838,-97.5332,0.0,33.7,1111122 
TCOON,ioos:station:TCOON:043:1,2017-09-17T17:30:00Z,27.8838,-97.5332,0.0,33.7,1111122 
TCOON,ioos:station:TCOON:043:1,2017-09-17T18:30:00Z,27.8838,-97.5332,0.0,33.8,1111122 
TCOON,ioos:station:TCOON:043:1,2017-09-17T19:30:00Z,27.8838,-97.5332,0.0,33.7,1111122 
TCOON,ioos:station:TCOON:043:1,2017-09-17T20:30:00Z,27.8838,-97.5332,0.0,33.5,1111122 
TCOON,ioos:station:TCOON:043:1,2017-09-17T21:30:00Z,27.8838,-97.5332,0.0,33.4,1111122 
TCOON,ioos:station:TCOON:043:1,2017-09-17T22:30:00Z,27.8838,-97.5332,0.0,33.4,1111122 
TCOON,ioos:station:TCOON:043:1,2017-09-19T08:00:00Z,27.8838,-97.5332,0.0,32.4,1111122 
TCOON,ioos:station:TCOON:043:1,2017-09-19T08:30:00Z,27.8838,-97.5332,0.0,32.5,1111122 
TCOON,ioos:station:TCOON:043:1,2017-09-19T09:30:00Z,27.8838,-97.5332,0.0,32.5,1111122 
TCOON,ioos:station:TCOON:043:1,2017-09-19T10:30:00Z,27.8838,-97.5332,0.0,32.7,1111122 
TCOON,ioos:station:TCOON:043:1,2017-09-19T11:30:00Z,27.8838,-97.5332,0.0,32.7,1111122 
TCOON,ioos:station:TCOON:043:1,2017-09-19T12:30:00Z,27.8838,-97.5332,0.0,32.8,1111122 
TCOON,ioos:station:TCOON:043:1,2017-09-19T13:30:00Z,27.8838,-97.5332,0.0,32.8,1111122 
TCOON,ioos:station:TCOON:043:1,2017-09-19T14:30:00Z,27.8838,-97.5332,0.0,32.8,1111122 
TCOON,ioos:station:TCOON:043:1,2017-09-19T15:30:00Z,27.8838,-97.5332,0.0,33.0,1111122 
TCOON,ioos:station:TCOON:043:1,2017-09-19T16:30:00Z,27.8838,-97.5332,0.0,33.1,1111122 
TCOON,ioos:station:TCOON:043:1,2017-09-19T17:30:00Z,27.8838,-97.5332,0.0,33.2,1111122 
TCOON,ioos:station:TCOON:043:1,2017-09-19T18:30:00Z,27.8838,-97.5332,0.0,33.0,1111122 
TCOON,ioos:station:TCOON:043:1,2017-09-19T19:30:00Z,27.8838,-97.5332,0.0,32.8,1111122 
TCOON,ioos:station:TCOON:043:1,2017-09-19T20:30:00Z,27.8838,-97.5332,0.0,32.6,1111122 
TCOON,ioos:station:TCOON:043:1,2017-09-19T21:30:00Z,27.8838,-97.5332,0.0,32.5,1111122 
TCOON,ioos:station:TCOON:043:1,2017-09-19T22:30:00Z,27.8838,-97.5332,0.0,32.1,1111122 
TCOON,ioos:station:TCOON:043:1,2017-09-19T23:30:00Z,27.8838,-97.5332,0.0,32.2,1111122 
TCOON,ioos:station:TCOON:043:1,2017-09-20T00:30:00Z,27.8838,-97.5332,0.0,32.5,1111122 
TCOON,ioos:station:TCOON:043:1,2017-09-20T01:30:00Z,27.8838,-97.5332,0.0,32.6,1111122 
TCOON,ioos:station:TCOON:043:1,2017-09-20T02:30:00Z,27.8838,-97.5332,0.0,32.4,1111122 
TCOON,ioos:station:TCOON:043:1,2017-09-20T03:30:00Z,27.8838,-97.5332,0.0,32.6,1111122 
TCOON,ioos:station:TCOON:043:1,2017-09-20T04:30:00Z,27.8838,-97.5332,0.0,32.7,1111122 
TCOON,ioos:station:TCOON:043:1,2017-09-20T05:30:00Z,27.8838,-97.5332,0.0,32.8,1111122 
TCOON,ioos:station:TCOON:043:1,2017-09-20T06:30:00Z,27.8838,-97.5332,0.0,32.8,1111122 
TCOON,ioos:station:TCOON:043:1,2017-09-20T07:30:00Z,27.8838,-97.5332,0.0,33.0,1111122 
TCOON,ioos:station:TCOON:043:1,2017-09-20T08:30:00Z,27.8838,-97.5332,0.0,32.7,1111122 
TCOON,ioos:station:TCOON:043:1,2017-09-20T09:30:00Z,27.8838,-97.5332,0.0,32.7,1111122 
TCOON,ioos:station:TCOON:043:1,2017-09-20T10:30:00Z,27.8838,-97.5332,0.0,33.1,1111122 
TCOON,ioos:station:TCOON:043:1,2017-09-20T11:30:00Z,27.8838,-97.5332,0.0,33.1,1111122 
TCOON,ioos:station:TCOON:043:1,2017-09-20T12:30:00Z,27.8838,-97.5332,0.0,33.0,1111122 
TCOON,ioos:station:TCOON:043:1,2017-09-20T13:30:00Z,27.8838,-97.5332,0.0,33.1,1111122 
TCOON,ioos:station:TCOON:043:1,2017-09-20T14:30:00Z,27.8838,-97.5332,0.0,33.4,1111122 
TCOON,ioos:station:TCOON:043:1,2017-09-20T15:30:00Z,27.8838,-97.5332,0.0,33.7,1111122 
TCOON,ioos:station:TCOON:043:1,2017-09-20T16:30:00Z,27.8838,-97.5332,0.0,33.9,1111122 
TCOON,ioos:station:TCOON:043:1,2017-09-20T17:30:00Z,27.8838,-97.5332,0.0,34.2,1111122 
TCOON,ioos:station:TCOON:043:1,2017-09-20T18:30:00Z,27.8838,-97.5332,0.0,34.2,1111122 
TCOON,ioos:station:TCOON:043:1,2017-09-20T19:30:00Z,27.8838,-97.5332,0.0,34.2,1111122 
TCOON,ioos:station:TCOON:043:1,2017-09-20T20:30:00Z,27.8838,-97.5332,0.0,34.1,1111122 
TCOON,ioos:station:TCOON:043:1,2017-09-20T21:30:00Z,27.8838,-97.5332,0.0,34.4,1111122 
TCOON,ioos:station:TCOON:043:1,2017-09-20T22:30:00Z,27.8838,-97.5332,0.0,34.4,1111122 
TCOON,ioos:station:TCOON:043:1,2017-09-20T23:30:00Z,27.8838,-97.5332,0.0,34.5,1111122 
TCOON,ioos:station:TCOON:043:1,2017-09-21T00:30:00Z,27.8838,-97.5332,0.0,34.1,1111122 
TCOON,ioos:station:TCOON:043:1,2017-09-21T01:30:00Z,27.8838,-97.5332,0.0,34.2,1111122 
TCOON,ioos:station:TCOON:043:1,2017-09-21T02:30:00Z,27.8838,-97.5332,0.0,34.1,1111122 
TCOON,ioos:station:TCOON:043:1,2017-09-21T03:30:00Z,27.8838,-97.5332,0.0,34.2,1111122 
TCOON,ioos:station:TCOON:043:1,2017-09-21T04:30:00Z,27.8838,-97.5332,0.0,34.2,1111122 
TCOON,ioos:station:TCOON:043:1,2017-09-21T05:30:00Z,27.8838,-97.5332,0.0,34.1,1111122 
TCOON,ioos:station:TCOON:043:1,2017-09-21T06:30:00Z,27.8838,-97.5332,0.0,34.3,1111122 
TCOON,ioos:station:TCOON:043:1,2017-09-21T07:30:00Z,27.8838,-97.5332,0.0,34.3,1111122 
TCOON,ioos:station:TCOON:043:1,2017-09-21T08:30:00Z,27.8838,-97.5332,0.0,34.3,1111122 
TCOON,ioos:station:TCOON:043:1,2017-09-21T09:30:00Z,27.8838,-97.5332,0.0,34.1,1111122 
TCOON,ioos:station:TCOON:043:1,2017-09-21T10:30:00Z,27.8838,-97.5332,0.0,34.5,1111122 
TCOON,ioos:station:TCOON:043:1,2017-09-21T11:30:00Z,27.8838,-97.5332,0.0,34.5,1111122 
TCOON,ioos:station:TCOON:043:1,2017-09-21T12:30:00Z,27.8838,-97.5332,0.0,34.6,1111122 
TCOON,ioos:station:TCOON:043:1,2017-09-21T13:30:00Z,27.8838,-97.5332,0.0,34.5,1111122 